If you wish to contribute or participate in the discussions about articles you are invited to join SKYbrary as a registered user

 Actions

Miyazaki Airport

From SKYbrary Wiki

RJFM
Airport
ICAO: RJFM – IATA: KMI
Summary
Name Miyazaki Airport
Region Asia and Pacific
Territory Japan JP.gif
Location Miyazaki, Kyushu
Serving Miyazaki
Elevation 5.791 m
19 ft5.791 m
Coordinates 31° 52' 38.00" N, 131° 26' 55.00" E
Runways
Designator Length Width Surface ROPS
9/27 2499 m8,198.819 ft
46 m150.919 ft
ASP yes/yes


METAR
Observation RJFM 210800Z 33004KT 9999 FEW020 SCT070 BKN160 23/17 Q1010
Station Miyazaki Airport
Date/Time 21 October 2019 08:00:00
Wind direction 330°
Wind speed 04 kts
Lowest cloud amount few clouds
Temperature 23°C
Dew point 17°C
Humidity 69%
QNH 1010 hPa
Weather condition n/a

Miyazaki Airport is an airport located 3.2 km1.728 nm
3,200 m
10,498.688 ft
south southeast of Miyazaki, a city in the Miyazaki Prefecture of Japan.

Climatology

Humid Sub-tropical climate (Köppen climate classification Cfa)

Maps

Terrain

Loading map...

Airport Layout

Loading map...



Accidents & Serious Incidents at or in vicinity of RJFM

None on SKYbrary